| time (UTC) | temp F | wind direction | speed knots | gust knots | rain 1hr in | rain 24hr in | rain mn in | humidity % | barometer mb |
| 20260902170823 | 92 | 239 | 2.6 | 9.6 | 0.00 | 0.00 | 0.00 | 63 | 1019.3 |
| 20260902170330 | 92 | 200 | 2.6 | 7.8 | 0.00 | 0.00 | 0.00 | 65 | 1019.3 |
| 20260902165816 | 92 | 247 | 2.6 | 7.8 | 0.00 | 0.00 | 0.00 | 62 | 1019.4 |
| 20260902165324 | 92 | 272 | 2.6 | 8.7 | 0.00 | 0.00 | 0.00 | 64 | 1019.4 |
| 20260902164831 | 92 | 240 | 4.3 | 8.7 | 0.00 | 0.00 | 0.00 | 64 | 1019.5 |
| 20260902164330 | 91 | 243 | 3.5 | 12.2 | 0.00 | 0.00 | 0.00 | 63 | 1019.5 |
| 20260902163837 | 91 | 236 | 3.5 | 12.2 | 0.00 | 0.00 | 0.00 | 64 | 1019.5 |
| 20260902163323 | 91 | 256 | 3.5 | 10.4 | 0.00 | 0.00 | 0.00 | 64 | 1019.6 |
| 20260902162831 | 91 | 200 | 1.7 | 8.7 | 0.00 | 0.00 | 0.00 | 64 | 1019.5 |
| 20260902162336 | 91 | 225 | 2.6 | 8.7 | 0.00 | 0.00 | 0.00 | 65 | 1019.6 |
| 20260902161824 | 90 | 254 | 4.3 | 8.7 | 0.00 | 0.00 | 0.00 | 66 | 1019.6 |
| 20260902161334 | 91 | 209 | 4.3 | 8.7 | 0.00 | 0.00 | 0.00 | 65 | 1019.7 |
| 20260902160822 | 90 | 233 | 1.7 | 8.7 | 0.00 | 0.00 | 0.00 | 68 | 1019.7 |
| 20260902160330 | 91 | 226 | 4.3 | 8.7 | 0.00 | 0.00 | 0.00 | 66 | 1019.8 |
| 20260902155838 | 90 | 243 | 2.6 | 7.0 | 0.00 | 0.00 | 0.00 | 66 | 1019.7 |
| 20260902155324 | 90 | 254 | 2.6 | 9.6 | 0.00 | 0.00 | 0.00 | 68 | 1019.7 |
| 20260902154848 | 90 | 239 | 3.5 | 7.0 | 0.00 | 0.00 | 0.00 | 66 | 1019.8 |
| 20260902154336 | 90 | 224 | 1.7 | 5.2 | 0.00 | 0.00 | 0.00 | 68 | 1019.7 |
| 20260902153822 | 90 | 223 | 2.6 | 7.0 | 0.00 | 0.00 | 0.00 | 68 | 1019.8 |
| 20260902153327 | 89 | 226 | 3.5 | 7.0 | 0.00 | 0.00 | 0.00 | 69 | 1019.8 |
| 20260902152834 | 89 | 272 | 3.5 | 5.2 | 0.00 | 0.00 | 0.00 | 69 | 1019.7 |
| 20260902152319 | 89 | 253 | 1.7 | 7.0 | 0.00 | 0.00 | 0.00 | 70 | 1019.7 |
| 20260902151828 | 89 | 164 | 2.6 | 7.0 | 0.00 | 0.00 | 0.00 | 69 | 1019.8 |
| 20260902151334 | 88 | 244 | 0.9 | 9.6 | 0.00 | 0.00 | 0.00 | 71 | 1019.8 |
| 20260902150822 | 88 | 214 | 3.5 | 7.8 | 0.00 | 0.00 | 0.00 | 70 | 1019.8 |
| 20260902150355 | 88 | 283 | 2.6 | 7.8 | 0.00 | 0.00 | 0.00 | 72 | 1019.8 |
| 20260902145822 | 88 | 207 | 2.6 | 7.0 | 0.00 | 0.00 | 0.00 | 71 | 1019.8 |
| 20260902145327 | 87 | 261 | 2.6 | 7.0 | 0.00 | 0.00 | 0.00 | 72 | 1019.8 |
| 20260902144813 | 87 | 273 | 3.5 | 7.0 | 0.00 | 0.00 | 0.00 | 71 | 1019.8 |
| 20260902144337 | 87 | 247 | 1.7 | 6.1 | 0.00 | 0.00 | 0.00 | 72 | 1019.8 |
| 20260902143845 | 87 | 150 | 1.7 | 6.1 | 0.00 | 0.00 | 0.00 | 73 | 1019.9 |
| 20260902143323 | 86 | 158 | 1.7 | 7.8 | 0.00 | 0.00 | 0.00 | 73 | 1019.9 |
| 20260902142830 | 86 | 220 | 3.5 | 7.8 | 0.00 | 0.00 | 0.00 | 72 | 1019.9 |
| 20260902142331 | 86 | 174 | 2.6 | 5.2 | 0.00 | 0.00 | 0.00 | 73 | 1020.0 |
| 20260902141817 | 86 | 198 | 1.7 | 5.2 | 0.00 | 0.00 | 0.00 | 74 | 1019.9 |
| 20260902141324 | 86 | 213 | 0.9 | 4.3 | 0.00 | 0.00 | 0.00 | 75 | 1019.9 |
| 20260902140829 | 85 | 179 | 1.7 | 4.3 | 0.00 | 0.00 | 0.00 | 75 | 1019.9 |
| 20260902140316 | 85 | 219 | 1.7 | 5.2 | 0.00 | 0.00 | 0.00 | 76 | 1020.1 |
| 20260902135825 | 84 | 212 | 2.6 | 5.2 | 0.00 | 0.00 | 0.00 | 76 | 1020.1 |
| 20260902135351 | 84 | 212 | 1.7 | 3.5 | 0.00 | 0.00 | 0.00 | 78 | 1020.2 |
| 20260902134838 | 84 | 221 | 0.9 | 4.3 | 0.00 | 0.00 | 0.00 | 79 | 1020.2 |
| 20260902134323 | 83 | 239 | 2.6 | 5.2 | 0.00 | 0.00 | 0.00 | 77 | 1020.3 |
| 20260902133832 | 83 | 240 | 3.5 | 5.2 | 0.00 | 0.00 | 0.00 | 78 | 1020.3 |
| 20260902133320 | 83 | 224 | 0.9 | 4.3 | 0.00 | 0.00 | 0.00 | 80 | 1020.3 |
| 20260902132832 | 82 | 257 | 3.5 | 4.3 | 0.00 | 0.00 | 0.00 | 79 | 1020.3 |
| 20260902132340 | 82 | 262 | 1.7 | 4.3 | 0.00 | 0.00 | 0.00 | 80 | 1020.3 |
| 20260902131827 | 82 | 228 | 1.7 | 4.3 | 0.00 | 0.00 | 0.00 | 81 | 1020.2 |
| 20260902131335 | 82 | 143 | 1.7 | 3.5 | 0.00 | 0.00 | 0.00 | 81 | 1020.2 |
| 20260902130823 | 81 | 155 | 0.9 | 1.7 | 0.00 | 0.00 | 0.00 | 82 | 1020.3 |
| 20260902130326 | 81 | 178 | 0.0 | 3.5 | 0.00 | 0.00 | 0.00 | 83 | 1020.2 |
| 20260902125836 | 80 | 257 | 0.9 | 3.5 | 0.00 | 0.00 | 0.00 | 84 | 1020.2 |
| 20260902125318 | 80 | 224 | 0.0 | 0.9 | 0.00 | 0.00 | 0.00 | 85 | 1020.3 |
| 20260902124845 | 79 | 233 | 0.0 | 0.9 | 0.00 | 0.00 | 0.00 | 86 | 1020.2 |
| 20260902124333 | 79 | 247 | 0.0 | 0.9 | 0.00 | 0.00 | 0.00 | 86 | 1020.2 |
| 20260902123821 | 78 | 241 | 0.0 | 0.9 | 0.00 | 0.00 | 0.00 | 87 | 1020.2 |
| 20260902123328 | 77 | 148 | 0.0 | 0.9 | 0.00 | 0.00 | 0.00 | 90 | 1020.2 |
| 20260902122818 | 76 | 148 | 0.0 | 0.9 | 0.00 | 0.00 | 0.00 | 90 | 1020.1 |
| 20260902122350 | 76 | 126 | 0.0 | 0.0 | 0.00 | 0.00 | 0.00 | 91 | 1020.3 |
| 20260902121837 | 75 | 125 | 0.0 | 0.0 | 0.00 | 0.00 | 0.00 | 93 | 1020.3 |
| 20260902121325 | 75 | 124 | 0.0 | 0.0 | 0.00 | 0.00 | 0.00 | 94 | 1020.1 |
| 20260902120833 | 74 | 126 | 0.0 | 0.0 | 0.00 | 0.00 | 0.00 | 94 | 1020.3 |
| 20260902120321 | 74 | 126 | 0.0 | 0.0 | 0.00 | 0.00 | 0.00 | 94 | 1020.2 |
| 20260902115830 | 73 | 126 | 0.0 | 0.0 | 0.00 | 0.00 | 0.00 | 94 | 1020.2 |
| 20260902115338 | 73 | 126 | 0.0 | 0.0 | 0.00 | 0.00 | 0.00 | 94 | 1020.1 |
| 20260902114823 | 73 | 126 | 0.0 | 0.0 | 0.00 | 0.00 | 0.00 | 94 | 1020.1 |
| 20260902114328 | 73 | 126 | 0.0 | 0.0 | 0.00 | 0.00 | 0.00 | 94 | 1020.0 |
| 20260902113832 | 73 | 126 | 0.0 | 0.0 | 0.00 | 0.00 | 0.00 | 94 | 1020.0 |
| 20260902113339 | 73 | 126 | 0.0 | 0.0 | 0.00 | 0.00 | 0.00 | 94 | 1019.9 |
| 20260902112827 | 73 | 126 | 0.0 | 0.0 | 0.00 | 0.00 | 0.00 | 94 | 1019.9 |
| 20260902112352 | 73 | 126 | 0.0 | 0.0 | 0.00 | 0.00 | 0.00 | 94 | 1019.9 |
| 20260902111819 | 73 | 126 | 0.0 | 0.0 | 0.00 | 0.00 | 0.00 | 93 | 1019.8 |
| 20260902111327 | 73 | 126 | 0.0 | 0.0 | 0.00 | 0.00 | 0.00 | 93 | 1019.8 |
| 20260902110834 | 73 | 126 | 0.0 | 0.0 | 0.00 | 0.00 | 0.00 | 93 | 1019.6 |
| 20260902110322 | 73 | 126 | 0.0 | 0.0 | 0.00 | 0.00 | 0.00 | 93 | 1019.7 |
| 20260902105828 | 73 | 126 | 0.0 | 0.0 | 0.00 | 0.00 | 0.00 | 93 | 1019.7 |
| 20260902105334 | 73 | 126 | 0.0 | 0.0 | 0.00 | 0.00 | 0.00 | 93 | 1019.6 |
| 20260902104824 | 73 | 126 | 0.0 | 0.0 | 0.00 | 0.00 | 0.00 | 93 | 1019.5 |
| 20260902104332 | 73 | 126 | 0.0 | 0.0 | 0.00 | 0.00 | 0.00 | 92 | 1019.6 |
| 20260902103840 | 74 | 126 | 0.0 | 0.0 | 0.00 | 0.00 | 0.00 | 92 | 1019.5 |
| 20260902103329 | 74 | 126 | 0.0 | 0.0 | 0.00 | 0.00 | 0.00 | 92 | 1019.5 |
| 20260902102836 | 74 | 126 | 0.0 | 0.0 | 0.00 | 0.00 | 0.00 | 92 | 1019.4 |
| 20260902102340 | 74 | 125 | 0.0 | 0.0 | 0.00 | 0.00 | 0.00 | 92 | 1019.3 |
| 20260902101829 | 74 | 125 | 0.0 | 0.0 | 0.00 | 0.00 | 0.00 | 92 | 1019.3 |
| 20260902101318 | 74 | 125 | 0.0 | 0.0 | 0.00 | 0.00 | 0.00 | 92 | 1019.4 |
| 20260902100843 | 74 | 125 | 0.0 | 0.0 | 0.00 | 0.00 | 0.00 | 92 | 1019.2 |
| 20260902100320 | 74 | 125 | 0.0 | 0.0 | 0.00 | 0.00 | 0.00 | 92 | 1019.2 |
| 20260902095824 | 74 | 125 | 0.0 | 0.0 | 0.00 | 0.00 | 0.00 | 91 | 1019.2 |
| 20260902095353 | 74 | 125 | 0.0 | 0.0 | 0.00 | 0.00 | 0.00 | 91 | 1019.1 |
| 20260902094834 | 74 | 125 | 0.0 | 0.0 | 0.00 | 0.00 | 0.00 | 91 | 1019.0 |
| 20260902094320 | 75 | 125 | 0.0 | 0.0 | 0.00 | 0.00 | 0.00 | 91 | 1019.1 |
| 20260902093848 | 75 | 125 | 0.0 | 0.0 | 0.00 | 0.00 | 0.00 | 91 | 1019.1 |
| 20260902093401 | 75 | 125 | 0.0 | 0.0 | 0.00 | 0.00 | 0.00 | 91 | 1019.1 |
| 20260902092816 | 75 | 125 | 0.0 | 0.0 | 0.00 | 0.00 | 0.00 | 91 | 1019.1 |
| 20260902092355 | 74 | 125 | 0.0 | 0.0 | 0.00 | 0.00 | 0.00 | 91 | 1019.1 |
| 20260902091830 | 74 | 125 | 0.0 | 0.0 | 0.00 | 0.00 | 0.00 | 91 | 1019.1 |
| 20260902091337 | 74 | 125 | 0.0 | 0.0 | 0.00 | 0.00 | 0.00 | 91 | 1019.0 |
| 20260902090836 | 75 | 125 | 0.0 | 0.0 | 0.00 | 0.00 | 0.00 | 91 | 1019.0 |
| 20260902090317 | 75 | 125 | 0.0 | 0.0 | 0.00 | 0.00 | 0.00 | 91 | 1019.0 |
| 20260902085837 | 75 | 125 | 0.0 | 0.0 | 0.00 | 0.00 | 0.00 | 91 | 1018.9 |
| 20260902085340 | 75 | 125 | 0.0 | 0.0 | 0.00 | 0.00 | 0.00 | 92 | 1019.0 |
| 20260902084855 | 74 | 125 | 0.0 | 0.0 | 0.00 | 0.00 | 0.00 | 92 | 1019.0 |
| 20260902084336 | 74 | 125 | 0.0 | 0.0 | 0.00 | 0.00 | 0.00 | 92 | 1018.9 |
| 20260902083823 | 74 | 125 | 0.0 | 0.0 | 0.00 | 0.00 | 0.00 | 92 | 1018.9 |
| 20260902083343 | 74 | 125 | 0.0 | 0.0 | 0.00 | 0.00 | 0.00 | 92 | 1018.9 |
| 20260902082828 | 74 | 125 | 0.0 | 0.0 | 0.00 | 0.00 | 0.00 | 92 | 1018.8 |
| 20260902082314 | 74 | 125 | 0.0 | 0.0 | 0.00 | 0.00 | 0.00 | 92 | 1018.8 |
| 20260902081857 | 74 | 125 | 0.0 | 0.0 | 0.00 | 0.00 | 0.00 | 93 | 1018.7 |
| 20260902081333 | 74 | 212 | 0.0 | 0.0 | 0.00 | 0.00 | 0.00 | 93 | 1018.7 |
| 20260902080831 | 74 | 212 | 0.0 | 0.0 | 0.00 | 0.00 | 0.00 | 93 | 1018.7 |
| 20260902080337 | 74 | 209 | 0.0 | 0.0 | 0.00 | 0.00 | 0.00 | 93 | 1018.7 |
| 20260902075818 | 74 | 209 | 0.0 | 0.0 | 0.00 | 0.00 | 0.00 | 93 | 1018.6 |